Year,Month,Day,Hour,Minute,Value (Times are PST for temperature in C)
2008,09,15,00,00,11.80
2008,09,15,00,01,11.80
2008,09,15,00,02,11.80
2008,09,15,00,03,11.80
2008,09,15,00,04,11.80
2008,09,15,00,05,11.80
2008,09,15,00,06,11.80
2008,09,15,00,07,11.80
2008,09,15,00,08,11.80
2008,09,15,00,09,11.80
2008,09,15,00,10,11.80
2008,09,15,00,11,11.80
2008,09,15,00,12,11.80
2008,09,15,00,13,11.80
2008,09,15,00,14,11.80
2008,09,15,00,15,11.70
2008,09,15,00,16,11.70
2008,09,15,00,17,11.70
2008,09,15,00,18,11.60
2008,09,15,00,19,11.60
2008,09,15,00,20,11.60
2008,09,15,00,21,11.60
2008,09,15,00,22,11.60
2008,09,15,00,23,11.60
2008,09,15,00,24,11.50
2008,09,15,00,25,11.50
2008,09,15,00,26,11.50
2008,09,15,00,27,11.50
2008,09,15,00,28,11.50
2008,09,15,00,29,11.50
2008,09,15,00,30,11.50
2008,09,15,00,31,11.50
2008,09,15,00,32,11.40
2008,09,15,00,33,11.40
2008,09,15,00,34,11.40
2008,09,15,00,35,11.30
2008,09,15,00,36,11.30
2008,09,15,00,37,11.30
2008,09,15,00,38,11.30
2008,09,15,00,39,11.30
2008,09,15,00,40,11.30
2008,09,15,00,41,11.30
2008,09,15,00,42,11.30
2008,09,15,00,43,11.30
2008,09,15,00,44,11.30
2008,09,15,00,45,11.30
2008,09,15,00,46,11.30
2008,09,15,00,47,11.30
2008,09,15,00,48,11.30
2008,09,15,00,49,11.30
2008,09,15,00,50,11.30
2008,09,15,00,51,11.20
2008,09,15,00,52,11.20
2008,09,15,00,53,11.20
2008,09,15,00,54,11.20
2008,09,15,00,55,11.20
2008,09,15,00,56,11.20
2008,09,15,00,57,11.10
2008,09,15,00,58,11.10
2008,09,15,00,59,11.10
2008,09,15,01,00,11.10
2008,09,15,01,01,11.00
2008,09,15,01,02,11.00
2008,09,15,01,03,11.00
2008,09,15,01,04,11.00
2008,09,15,01,05,10.90
2008,09,15,01,06,10.90
2008,09,15,01,07,10.90
2008,09,15,01,08,10.90
2008,09,15,01,09,10.90
2008,09,15,01,10,10.90
2008,09,15,01,11,10.90
2008,09,15,01,12,10.90
2008,09,15,01,13,10.90
2008,09,15,01,14,10.90
2008,09,15,01,15,10.90
2008,09,15,01,16,10.90
2008,09,15,01,17,10.80
2008,09,15,01,18,10.80
2008,09,15,01,19,10.80
2008,09,15,01,20,10.80
2008,09,15,01,21,10.80
2008,09,15,01,22,10.80
2008,09,15,01,23,10.80
2008,09,15,01,24,10.80
2008,09,15,01,25,10.80
2008,09,15,01,26,10.80
2008,09,15,01,27,10.70
2008,09,15,01,28,10.70
2008,09,15,01,29,10.70
2008,09,15,01,30,10.70
2008,09,15,01,31,10.70
2008,09,15,01,32,10.70
2008,09,15,01,33,10.70
2008,09,15,01,34,10.70
2008,09,15,01,35,10.70
2008,09,15,01,36,10.70
2008,09,15,01,37,10.70
2008,09,15,01,38,10.80
2008,09,15,01,39,10.80
2008,09,15,01,40,10.80
2008,09,15,01,41,10.80
2008,09,15,01,42,10.80
2008,09,15,01,43,10.80
2008,09,15,01,44,10.80
2008,09,15,01,45,10.70
2008,09,15,01,46,10.70
2008,09,15,01,47,10.70
2008,09,15,01,48,10.70
2008,09,15,01,49,10.70
2008,09,15,01,50,10.70
2008,09,15,01,51,10.60
2008,09,15,01,52,10.60
2008,09,15,01,53,10.60
2008,09,15,01,54,10.60
2008,09,15,01,55,10.60
2008,09,15,01,56,10.60
2008,09,15,01,57,10.60
2008,09,15,01,58,10.60
2008,09,15,01,59,10.60
2008,09,15,02,00,10.60
2008,09,15,02,01,10.50
2008,09,15,02,02,10.50
2008,09,15,02,03,10.50
2008,09,15,02,04,10.50
2008,09,15,02,05,10.50
2008,09,15,02,06,10.40
2008,09,15,02,07,10.40
2008,09,15,02,08,10.40
2008,09,15,02,09,10.40
2008,09,15,02,10,10.40
2008,09,15,02,11,10.40
2008,09,15,02,12,10.30
2008,09,15,02,13,10.30
2008,09,15,02,14,10.30
2008,09,15,02,15,10.30
2008,09,15,02,16,10.30
2008,09,15,02,17,10.30
2008,09,15,02,18,10.30
2008,09,15,02,19,10.30
2008,09,15,02,20,10.30
2008,09,15,02,21,10.30
2008,09,15,02,22,10.30
2008,09,15,02,23,10.30
2008,09,15,02,24,10.30
2008,09,15,02,25,10.30
2008,09,15,02,26,10.30
2008,09,15,02,27,10.30
2008,09,15,02,28,10.30
2008,09,15,02,29,10.30
2008,09,15,02,30,10.30
2008,09,15,02,31,10.40
2008,09,15,02,32,10.40
2008,09,15,02,33,10.40
2008,09,15,02,34,10.40
2008,09,15,02,35,10.40
2008,09,15,02,36,10.40
2008,09,15,02,37,10.40
2008,09,15,02,38,10.40
2008,09,15,02,39,10.40
2008,09,15,02,40,10.40
2008,09,15,02,41,10.40
2008,09,15,02,42,10.40
2008,09,15,02,43,10.40
2008,09,15,02,44,10.30
2008,09,15,02,45,10.30
2008,09,15,02,46,10.30
2008,09,15,02,47,10.30
2008,09,15,02,48,10.30
2008,09,15,02,49,10.30
2008,09,15,02,50,10.30
2008,09,15,02,51,10.30
2008,09,15,02,52,10.20
2008,09,15,02,53,10.20
2008,09,15,02,54,10.20
2008,09,15,02,55,10.20
2008,09,15,02,56,10.20
2008,09,15,02,57,10.30
2008,09,15,02,58,10.30
2008,09,15,02,59,10.30
2008,09,15,03,00,10.20
2008,09,15,03,01,10.20
2008,09,15,03,02,10.20
2008,09,15,03,03,10.20
2008,09,15,03,04,10.20
2008,09,15,03,05,10.20
2008,09,15,03,06,10.20
2008,09,15,03,07,10.20
2008,09,15,03,08,10.20
2008,09,15,03,09,10.20
2008,09,15,03,10,10.20
2008,09,15,03,11,10.20
2008,09,15,03,12,10.20
2008,09,15,03,13,10.20
2008,09,15,03,14,10.20
2008,09,15,03,15,10.20
2008,09,15,03,16,10.20
2008,09,15,03,17,10.20
2008,09,15,03,18,10.20
2008,09,15,03,19,10.20
2008,09,15,03,20,10.20
2008,09,15,03,21,10.20
2008,09,15,03,22,10.20
2008,09,15,03,23,10.10
2008,09,15,03,24,10.10
2008,09,15,03,25,10.10
2008,09,15,03,26,10.10
2008,09,15,03,27,10.10
2008,09,15,03,28,10.10
2008,09,15,03,29,10.10
2008,09,15,03,30,10.10
2008,09,15,03,31,10.10
2008,09,15,03,32,10.10
2008,09,15,03,33,10.10
2008,09,15,03,34,10.00
2008,09,15,03,35,10.00
2008,09,15,03,36,10.00
2008,09,15,03,37,10.00
2008,09,15,03,38,10.00
2008,09,15,03,39,9.90
2008,09,15,03,40,9.90
2008,09,15,03,41,9.90
2008,09,15,03,42,9.90
2008,09,15,03,43,9.80
2008,09,15,03,44,9.80
2008,09,15,03,45,9.80
2008,09,15,03,46,9.80
2008,09,15,03,47,9.70
2008,09,15,03,48,9.70
2008,09,15,03,49,9.70
2008,09,15,03,50,9.70
2008,09,15,03,51,9.70
2008,09,15,03,52,9.70
2008,09,15,03,53,9.70
2008,09,15,03,54,9.70
2008,09,15,03,55,9.70
2008,09,15,03,56,9.70
2008,09,15,03,57,9.70
2008,09,15,03,58,9.60
2008,09,15,03,59,9.60
2008,09,15,04,00,9.60
2008,09,15,04,01,9.60
2008,09,15,04,02,9.60
2008,09,15,04,03,9.60
2008,09,15,04,04,9.60
2008,09,15,04,05,9.50
2008,09,15,04,06,9.50
2008,09,15,04,07,9.50
2008,09,15,04,08,9.50
2008,09,15,04,09,9.40
2008,09,15,04,10,9.40
2008,09,15,04,11,9.40
2008,09,15,04,12,9.40
2008,09,15,04,13,9.40
2008,09,15,04,14,9.40
2008,09,15,04,15,9.40
2008,09,15,04,16,9.40
2008,09,15,04,17,9.40
2008,09,15,04,18,9.40
2008,09,15,04,19,9.40
2008,09,15,04,20,9.40
2008,09,15,04,21,9.40
2008,09,15,04,22,9.40
2008,09,15,04,23,9.40
2008,09,15,04,24,9.40
2008,09,15,04,25,9.40
2008,09,15,04,26,9.40
2008,09,15,04,27,9.40
2008,09,15,04,28,9.40
2008,09,15,04,29,9.30
2008,09,15,04,30,9.30
2008,09,15,04,31,9.30
2008,09,15,04,32,9.30
2008,09,15,04,33,9.40
2008,09,15,04,34,9.30
2008,09,15,04,35,9.30
2008,09,15,04,36,9.30
2008,09,15,04,37,9.30
2008,09,15,04,38,9.30
2008,09,15,04,39,9.30
2008,09,15,04,40,9.30
2008,09,15,04,41,9.30
2008,09,15,04,42,9.30
2008,09,15,04,43,9.30
2008,09,15,04,44,9.30
2008,09,15,04,45,9.20
2008,09,15,04,46,9.20
2008,09,15,04,47,9.20
2008,09,15,04,48,9.20
2008,09,15,04,49,9.20
2008,09,15,04,50,9.30
2008,09,15,04,51,9.30
2008,09,15,04,52,9.30
2008,09,15,04,53,9.30
2008,09,15,04,54,9.30
2008,09,15,04,55,9.30
2008,09,15,04,56,9.30
2008,09,15,04,57,9.30
2008,09,15,04,58,9.30
2008,09,15,04,59,9.30
2008,09,15,05,00,9.30
2008,09,15,05,01,9.30
2008,09,15,05,02,9.30
2008,09,15,05,03,9.30
2008,09,15,05,04,9.30
2008,09,15,05,05,9.30
2008,09,15,05,06,9.20
2008,09,15,05,07,9.20
2008,09,15,05,08,9.20
2008,09,15,05,09,9.20
2008,09,15,05,10,9.20
2008,09,15,05,11,9.20
2008,09,15,05,12,9.20
2008,09,15,05,13,9.20
2008,09,15,05,14,9.20
2008,09,15,05,15,9.20
2008,09,15,05,16,9.20
2008,09,15,05,17,9.20
2008,09,15,05,18,9.20
2008,09,15,05,19,9.20
2008,09,15,05,20,9.20
2008,09,15,05,21,9.20
2008,09,15,05,22,9.20
2008,09,15,05,23,9.20
2008,09,15,05,24,9.20
2008,09,15,05,25,9.20
2008,09,15,05,26,9.20
2008,09,15,05,27,9.30
2008,09,15,05,28,9.30
2008,09,15,05,29,9.40
2008,09,15,05,30,9.40
2008,09,15,05,31,9.40
2008,09,15,05,32,9.40
2008,09,15,05,33,9.40
2008,09,15,05,34,9.40
2008,09,15,05,35,9.50
2008,09,15,05,36,9.50
2008,09,15,05,37,9.50
2008,09,15,05,38,9.60
2008,09,15,05,39,9.60
2008,09,15,05,40,9.60
2008,09,15,05,41,9.60
2008,09,15,05,42,9.60
2008,09,15,05,43,9.60
2008,09,15,05,44,9.60
2008,09,15,05,45,9.60
2008,09,15,05,46,9.50
2008,09,15,05,47,9.50
2008,09,15,05,48,9.50
2008,09,15,05,49,9.50
2008,09,15,05,50,9.50
2008,09,15,05,51,9.50
2008,09,15,05,52,9.40
2008,09,15,05,53,9.40
2008,09,15,05,54,9.30
2008,09,15,05,55,9.30
2008,09,15,05,56,9.20
2008,09,15,05,57,9.20
2008,09,15,05,58,9.20
2008,09,15,05,59,9.20
2008,09,15,06,00,9.20
2008,09,15,06,01,9.10
2008,09,15,06,02,9.10
2008,09,15,06,03,9.10
2008,09,15,06,04,9.20
2008,09,15,06,05,9.20
2008,09,15,06,06,9.20
2008,09,15,06,07,9.20
2008,09,15,06,08,9.20
2008,09,15,06,09,9.20
2008,09,15,06,10,9.10
2008,09,15,06,11,9.10
2008,09,15,06,12,9.10
2008,09,15,06,13,9.10
2008,09,15,06,14,9.10
2008,09,15,06,15,9.10
2008,09,15,06,16,9.00
2008,09,15,06,17,9.00
2008,09,15,06,18,9.00
2008,09,15,06,19,9.00
2008,09,15,06,20,8.90
2008,09,15,06,21,8.90
2008,09,15,06,22,8.90
2008,09,15,06,23,8.80
2008,09,15,06,24,8.80
2008,09,15,06,25,8.80
2008,09,15,06,26,8.80
2008,09,15,06,27,8.80
2008,09,15,06,28,8.80
2008,09,15,06,29,8.80
2008,09,15,06,30,8.70
2008,09,15,06,31,8.70
2008,09,15,06,32,8.70
2008,09,15,06,33,8.70
2008,09,15,06,34,8.80
2008,09,15,06,35,8.80
2008,09,15,06,36,8.80
2008,09,15,06,37,8.80
2008,09,15,06,38,8.80
2008,09,15,06,39,8.80
2008,09,15,06,40,8.80
2008,09,15,06,41,8.80
2008,09,15,06,42,8.70
2008,09,15,06,43,8.70
2008,09,15,06,44,8.70
2008,09,15,06,45,8.70
2008,09,15,06,46,8.70
2008,09,15,06,47,8.70
2008,09,15,06,48,8.70
2008,09,15,06,49,8.60
2008,09,15,06,50,8.60
2008,09,15,06,51,8.60
2008,09,15,06,52,8.60
2008,09,15,06,53,8.60
2008,09,15,06,54,8.60
2008,09,15,06,55,8.60
2008,09,15,06,56,8.60
2008,09,15,06,57,8.60
2008,09,15,06,58,8.60
2008,09,15,06,59,8.60
2008,09,15,07,00,8.60
2008,09,15,07,01,8.60
2008,09,15,07,02,8.50
2008,09,15,07,03,8.50
2008,09,15,07,04,8.50
2008,09,15,07,05,8.50
2008,09,15,07,06,8.50
2008,09,15,07,07,8.50
2008,09,15,07,08,8.50
2008,09,15,07,09,8.50
2008,09,15,07,10,8.50
2008,09,15,07,11,8.40
2008,09,15,07,12,8.40
2008,09,15,07,13,8.40
2008,09,15,07,14,8.40
2008,09,15,07,15,8.40
2008,09,15,07,16,8.50
2008,09,15,07,17,8.50
2008,09,15,07,18,8.60
2008,09,15,07,19,8.60
2008,09,15,07,20,8.70
2008,09,15,07,21,8.70
2008,09,15,07,22,8.80
2008,09,15,07,23,8.80
2008,09,15,07,24,8.80
2008,09,15,07,25,8.80
2008,09,15,07,26,8.90
2008,09,15,07,27,8.90
2008,09,15,07,28,8.90
2008,09,15,07,29,9.00
2008,09,15,07,30,9.10
2008,09,15,07,31,9.10
2008,09,15,07,32,9.20
2008,09,15,07,33,9.20
2008,09,15,07,34,9.30
2008,09,15,07,35,9.30
2008,09,15,07,36,9.30
2008,09,15,07,37,9.30
2008,09,15,07,38,9.30
2008,09,15,07,39,9.30
2008,09,15,07,40,9.30
2008,09,15,07,41,9.30
2008,09,15,07,42,9.40
2008,09,15,07,43,9.40
2008,09,15,07,44,9.50
2008,09,15,07,45,9.60
2008,09,15,07,46,9.60
2008,09,15,07,47,9.70
2008,09,15,07,48,9.80
2008,09,15,07,49,9.90
2008,09,15,07,50,9.90
2008,09,15,07,51,10.00
2008,09,15,07,52,10.10
2008,09,15,07,53,10.20
2008,09,15,07,54,10.20
2008,09,15,07,55,10.30
2008,09,15,07,56,10.30
2008,09,15,07,57,10.30
2008,09,15,07,58,10.30
2008,09,15,07,59,10.40
2008,09,15,08,00,10.40
2008,09,15,08,01,10.60
2008,09,15,08,02,10.70
2008,09,15,08,03,10.80
2008,09,15,08,04,10.90
2008,09,15,08,05,11.00
2008,09,15,08,06,11.20
2008,09,15,08,07,11.30
2008,09,15,08,08,11.40
2008,09,15,08,09,11.50
2008,09,15,08,10,11.60
2008,09,15,08,11,11.60
2008,09,15,08,12,11.70
2008,09,15,08,13,11.80
2008,09,15,08,14,11.80
2008,09,15,08,15,11.80
2008,09,15,08,16,11.80
2008,09,15,08,17,11.80
2008,09,15,08,18,11.90
2008,09,15,08,19,11.90
2008,09,15,08,20,11.90
2008,09,15,08,21,11.90
2008,09,15,08,22,11.90
2008,09,15,08,23,11.90
2008,09,15,08,24,12.00
2008,09,15,08,25,12.00
2008,09,15,08,26,12.10
2008,09,15,08,27,12.20
2008,09,15,08,28,12.30
2008,09,15,08,29,12.40
2008,09,15,08,30,12.50
2008,09,15,08,31,12.60
2008,09,15,08,32,12.80
2008,09,15,08,33,12.90
2008,09,15,08,34,13.00
2008,09,15,08,35,13.10
2008,09,15,08,36,13.20
2008,09,15,08,37,13.40
2008,09,15,08,38,13.50
2008,09,15,08,39,13.70
2008,09,15,08,40,13.80
2008,09,15,08,41,13.90
2008,09,15,08,42,14.00
2008,09,15,08,43,14.10
2008,09,15,08,44,14.20
2008,09,15,08,45,14.30
2008,09,15,08,46,14.40
2008,09,15,08,47,14.50
2008,09,15,08,48,14.60
2008,09,15,08,49,14.60
2008,09,15,08,50,14.60
2008,09,15,08,51,14.70
2008,09,15,08,52,14.80
2008,09,15,08,53,14.80
2008,09,15,08,54,15.00
2008,09,15,08,55,15.00
2008,09,15,08,56,15.00
2008,09,15,08,57,15.10
2008,09,15,08,58,15.20
2008,09,15,08,59,15.30
2008,09,15,09,00,15.50
2008,09,15,09,01,15.70
2008,09,15,09,02,15.80
2008,09,15,09,03,16.00
2008,09,15,09,04,16.10
2008,09,15,09,05,16.20
2008,09,15,09,06,16.30
2008,09,15,09,07,16.50
2008,09,15,09,08,16.60
2008,09,15,09,09,16.70
2008,09,15,09,10,16.80
2008,09,15,09,11,16.80
2008,09,15,09,12,16.90
2008,09,15,09,13,17.00
2008,09,15,09,14,17.10
2008,09,15,09,15,17.10
2008,09,15,09,16,17.20
2008,09,15,09,17,17.20
2008,09,15,09,18,17.30
2008,09,15,09,19,17.30
2008,09,15,09,20,17.30
2008,09,15,09,21,17.30
2008,09,15,09,22,17.20
2008,09,15,09,23,17.10
2008,09,15,09,24,17.10
2008,09,15,09,25,17.10
2008,09,15,09,26,17.10
2008,09,15,09,27,17.10
2008,09,15,09,28,17.10
2008,09,15,09,29,17.10
2008,09,15,09,30,17.20
2008,09,15,09,31,17.20
2008,09,15,09,32,17.20
2008,09,15,09,33,17.20
2008,09,15,09,34,17.10
2008,09,15,09,35,17.10
2008,09,15,09,36,17.10
2008,09,15,09,37,17.10
2008,09,15,09,38,17.00
2008,09,15,09,39,17.00
2008,09,15,09,40,17.10
2008,09,15,09,41,17.10
2008,09,15,09,42,17.10
2008,09,15,09,43,17.20
2008,09,15,09,44,17.20
2008,09,15,09,45,17.30
2008,09,15,09,46,17.30
2008,09,15,09,47,17.40
2008,09,15,09,48,17.40
2008,09,15,09,49,17.40
2008,09,15,09,50,17.40
2008,09,15,09,51,17.50
2008,09,15,09,52,17.50
2008,09,15,09,53,17.60
2008,09,15,09,54,17.60
2008,09,15,09,55,17.70
2008,09,15,09,56,17.80
2008,09,15,09,57,17.80
2008,09,15,09,58,18.00
2008,09,15,09,59,18.00
2008,09,15,10,00,18.10
2008,09,15,10,01,18.10
2008,09,15,10,02,18.20
2008,09,15,10,03,18.20
2008,09,15,10,04,18.20
2008,09,15,10,05,18.20
2008,09,15,10,06,18.10
2008,09,15,10,07,18.10
2008,09,15,10,08,18.00
2008,09,15,10,09,17.90
2008,09,15,10,10,17.90
2008,09,15,10,11,17.90
2008,09,15,10,12,17.90
2008,09,15,10,13,18.00
2008,09,15,10,14,18.10
2008,09,15,10,15,18.20
2008,09,15,10,16,18.20
2008,09,15,10,17,18.20
2008,09,15,10,18,18.20
2008,09,15,10,19,18.20
2008,09,15,10,20,18.20
2008,09,15,10,21,18.30
2008,09,15,10,22,18.30
2008,09,15,10,23,18.40
2008,09,15,10,24,18.40
2008,09,15,10,25,18.40
2008,09,15,10,26,18.40
2008,09,15,10,27,18.40
2008,09,15,10,28,18.40
2008,09,15,10,29,18.50
2008,09,15,10,30,18.50
2008,09,15,10,31,18.60
2008,09,15,10,32,18.60
2008,09,15,10,33,18.60
2008,09,15,10,34,18.60
2008,09,15,10,35,18.60
2008,09,15,10,36,18.60
2008,09,15,10,37,18.70
2008,09,15,10,38,18.70
2008,09,15,10,39,18.70
2008,09,15,10,40,18.60
2008,09,15,10,41,18.60
2008,09,15,10,42,18.60
2008,09,15,10,43,18.70
2008,09,15,10,44,18.70
2008,09,15,10,45,18.80
2008,09,15,10,46,18.70
2008,09,15,10,47,18.70
2008,09,15,10,48,18.70
2008,09,15,10,49,18.70
2008,09,15,10,50,18.80
2008,09,15,10,51,18.90
2008,09,15,10,52,18.90
2008,09,15,10,53,18.90
2008,09,15,10,54,19.00
2008,09,15,10,55,19.10
2008,09,15,10,56,19.20
2008,09,15,10,57,19.30
2008,09,15,10,58,19.30
2008,09,15,10,59,19.30
2008,09,15,11,00,19.30
2008,09,15,11,01,19.20
2008,09,15,11,02,19.30
2008,09,15,11,03,19.30
2008,09,15,11,04,19.30
2008,09,15,11,05,19.30
2008,09,15,11,06,19.30
2008,09,15,11,07,19.30
2008,09,15,11,08,19.30
2008,09,15,11,09,19.40
2008,09,15,11,10,19.50
2008,09,15,11,11,19.50
2008,09,15,11,12,19.50
2008,09,15,11,13,19.40
2008,09,15,11,14,19.40
2008,09,15,11,15,19.40
2008,09,15,11,16,19.40
2008,09,15,11,17,19.50
2008,09,15,11,18,19.60
2008,09,15,11,19,19.70
2008,09,15,11,20,19.70
2008,09,15,11,21,19.70
2008,09,15,11,22,19.70
2008,09,15,11,23,19.70
2008,09,15,11,24,19.80
2008,09,15,11,25,19.90
2008,09,15,11,26,19.90
2008,09,15,11,27,19.90
2008,09,15,11,28,19.90
2008,09,15,11,29,19.90
2008,09,15,11,30,19.80
2008,09,15,11,31,19.70
2008,09,15,11,32,19.70
2008,09,15,11,33,19.70
2008,09,15,11,34,19.70
2008,09,15,11,35,19.80
2008,09,15,11,36,19.80
2008,09,15,11,37,19.90
2008,09,15,11,38,20.00
2008,09,15,11,39,20.10
2008,09,15,11,40,20.20
2008,09,15,11,41,20.30
2008,09,15,11,42,20.30
2008,09,15,11,43,20.30
2008,09,15,11,44,20.30
2008,09,15,11,45,20.30
2008,09,15,11,46,20.40
2008,09,15,11,47,20.50
2008,09,15,11,48,20.60
2008,09,15,11,49,20.60
2008,09,15,11,50,20.70
2008,09,15,11,51,20.70
2008,09,15,11,52,20.70
2008,09,15,11,53,20.70
2008,09,15,11,54,20.80
2008,09,15,11,55,20.90
2008,09,15,11,56,21.00
2008,09,15,11,57,21.00
2008,09,15,11,58,20.90
2008,09,15,11,59,20.80
2008,09,15,12,00,20.70
2008,09,15,12,01,20.60
2008,09,15,12,02,20.50
2008,09,15,12,03,20.50
2008,09,15,12,04,20.40
2008,09,15,12,05,20.40
2008,09,15,12,06,20.40
2008,09,15,12,07,20.40
2008,09,15,12,08,20.50
2008,09,15,12,09,20.50
2008,09,15,12,10,20.60
2008,09,15,12,11,20.70
2008,09,15,12,12,20.70
2008,09,15,12,13,20.70
2008,09,15,12,14,20.70
2008,09,15,12,15,20.70
2008,09,15,12,16,20.80
2008,09,15,12,17,20.90
2008,09,15,12,18,20.90
2008,09,15,12,19,21.00
2008,09,15,12,20,21.10
2008,09,15,12,21,21.10
2008,09,15,12,22,21.10
2008,09,15,12,23,21.20
2008,09,15,12,24,21.20
2008,09,15,12,25,21.30
2008,09,15,12,26,21.30
2008,09,15,12,27,21.40
2008,09,15,12,28,21.40
2008,09,15,12,29,21.40
2008,09,15,12,30,21.40
2008,09,15,12,31,21.40
2008,09,15,12,32,21.40
2008,09,15,12,33,21.50
2008,09,15,12,34,21.60
2008,09,15,12,35,21.70
2008,09,15,12,36,21.80
2008,09,15,12,37,21.90
2008,09,15,12,38,22.10
2008,09,15,12,39,22.20
2008,09,15,12,40,22.40
2008,09,15,12,41,22.40
2008,09,15,12,42,22.40
2008,09,15,12,43,22.30
2008,09,15,12,44,22.20
2008,09,15,12,45,22.20
2008,09,15,12,46,22.10
2008,09,15,12,47,22.00
2008,09,15,12,48,22.00
2008,09,15,12,49,21.90
2008,09,15,12,50,21.90
2008,09,15,12,51,21.90
2008,09,15,12,52,21.90
2008,09,15,12,53,21.90
2008,09,15,12,54,21.90
2008,09,15,12,55,22.00
2008,09,15,12,56,22.00
2008,09,15,12,57,21.90
2008,09,15,12,58,21.90
2008,09,15,12,59,21.90
2008,09,15,13,00,21.80
2008,09,15,13,01,22.00
2008,09,15,13,02,22.10
2008,09,15,13,03,22.20
2008,09,15,13,04,22.20
2008,09,15,13,05,22.20
2008,09,15,13,06,22.10
2008,09,15,13,07,22.00
2008,09,15,13,08,21.90
2008,09,15,13,09,21.80
2008,09,15,13,10,21.80
2008,09,15,13,11,21.90
2008,09,15,13,12,22.00
2008,09,15,13,13,22.10
2008,09,15,13,14,22.10
2008,09,15,13,15,22.20
2008,09,15,13,16,22.10
2008,09,15,13,17,22.20
2008,09,15,13,18,22.30
2008,09,15,13,19,22.30
2008,09,15,13,20,22.40
2008,09,15,13,21,22.50
2008,09,15,13,22,22.60
2008,09,15,13,23,22.70
2008,09,15,13,24,22.70
2008,09,15,13,25,22.70
2008,09,15,13,26,22.50
2008,09,15,13,27,22.40
2008,09,15,13,28,22.30
2008,09,15,13,29,22.30
2008,09,15,13,30,22.30
2008,09,15,13,31,22.30
2008,09,15,13,32,22.30
2008,09,15,13,33,22.30
2008,09,15,13,34,22.30
2008,09,15,13,35,22.30
2008,09,15,13,36,22.30
2008,09,15,13,37,22.30
2008,09,15,13,38,22.40
2008,09,15,13,39,22.50
2008,09,15,13,40,22.60
2008,09,15,13,41,22.60
2008,09,15,13,42,22.60
2008,09,15,13,43,22.50
2008,09,15,13,44,22.40
2008,09,15,13,45,22.40
2008,09,15,13,46,22.30
2008,09,15,13,47,22.30
2008,09,15,13,48,22.30
2008,09,15,13,49,22.30
2008,09,15,13,50,22.30
2008,09,15,13,51,22.30
2008,09,15,13,52,22.20
2008,09,15,13,53,22.20
2008,09,15,13,54,22.20
2008,09,15,13,55,22.20
2008,09,15,13,56,22.20
2008,09,15,13,57,22.30
2008,09,15,13,58,22.50
2008,09,15,13,59,22.60
2008,09,15,14,00,22.60
2008,09,15,14,01,22.70
2008,09,15,14,02,22.60
2008,09,15,14,03,22.60
2008,09,15,14,04,22.60
2008,09,15,14,05,22.60
2008,09,15,14,06,22.80
2008,09,15,14,07,22.80
2008,09,15,14,08,22.80
2008,09,15,14,09,22.90
2008,09,15,14,10,23.00
2008,09,15,14,11,23.10
2008,09,15,14,12,23.10
2008,09,15,14,13,23.30
2008,09,15,14,14,23.40
2008,09,15,14,15,23.40
2008,09,15,14,16,23.30
2008,09,15,14,17,23.30
2008,09,15,14,18,23.20
2008,09,15,14,19,23.10
2008,09,15,14,20,23.10
2008,09,15,14,21,23.10
2008,09,15,14,22,23.30
2008,09,15,14,23,23.40
2008,09,15,14,24,23.50
2008,09,15,14,25,23.50
2008,09,15,14,26,23.50
2008,09,15,14,27,23.40
2008,09,15,14,28,23.40
2008,09,15,14,29,23.40
2008,09,15,14,30,23.30
2008,09,15,14,31,23.30
2008,09,15,14,32,23.40
2008,09,15,14,33,23.60
2008,09,15,14,34,23.80
2008,09,15,14,35,24.00
2008,09,15,14,36,24.20
2008,09,15,14,37,24.40
2008,09,15,14,38,24.50
2008,09,15,14,39,24.70
2008,09,15,14,40,24.80
2008,09,15,14,41,24.90
2008,09,15,14,42,24.90
2008,09,15,14,43,24.90
2008,09,15,14,44,24.80
2008,09,15,14,45,24.70
2008,09,15,14,46,24.70
2008,09,15,14,47,24.80
2008,09,15,14,48,24.80
2008,09,15,14,49,24.90
2008,09,15,14,50,24.90
2008,09,15,14,51,24.90
2008,09,15,14,52,24.90
2008,09,15,14,53,24.90
2008,09,15,14,54,24.90
2008,09,15,14,55,24.90
2008,09,15,14,56,24.90
2008,09,15,14,57,25.00
2008,09,15,14,58,25.10
2008,09,15,14,59,25.10
2008,09,15,15,00,25.10
2008,09,15,15,01,25.10
2008,09,15,15,02,25.10
2008,09,15,15,03,25.10
2008,09,15,15,04,25.10
2008,09,15,15,05,25.10
2008,09,15,15,06,25.20
2008,09,15,15,07,25.20
2008,09,15,15,08,25.20
2008,09,15,15,09,25.20
2008,09,15,15,10,25.20
2008,09,15,15,11,25.30
2008,09,15,15,12,25.30
2008,09,15,15,13,25.30
2008,09,15,15,14,25.40
2008,09,15,15,15,25.40
2008,09,15,15,16,25.40
2008,09,15,15,17,25.40
2008,09,15,15,18,25.40
2008,09,15,15,19,25.40
2008,09,15,15,20,25.40
2008,09,15,15,21,25.40
2008,09,15,15,22,25.40
2008,09,15,15,23,25.40
2008,09,15,15,24,25.20
2008,09,15,15,25,25.00
2008,09,15,15,26,25.00
2008,09,15,15,27,24.90
2008,09,15,15,28,24.90
2008,09,15,15,29,24.90
2008,09,15,15,30,25.00
2008,09,15,15,31,25.00
2008,09,15,15,32,25.10
2008,09,15,15,33,25.10
2008,09,15,15,34,25.10
2008,09,15,15,35,25.10
2008,09,15,15,36,25.10
2008,09,15,15,37,25.10
2008,09,15,15,38,25.10
2008,09,15,15,39,25.00
2008,09,15,15,40,24.90
2008,09,15,15,41,24.80
2008,09,15,15,42,24.80
2008,09,15,15,43,24.80
2008,09,15,15,44,24.90
2008,09,15,15,45,25.00
2008,09,15,15,46,25.10
2008,09,15,15,47,25.10
2008,09,15,15,48,25.20
2008,09,15,15,49,25.20
2008,09,15,15,50,25.20
2008,09,15,15,51,25.20
2008,09,15,15,52,25.20
2008,09,15,15,53,25.20
2008,09,15,15,54,25.20
2008,09,15,15,55,25.20
2008,09,15,15,56,25.20
2008,09,15,15,57,25.20
2008,09,15,15,58,25.20
2008,09,15,15,59,25.20
2008,09,15,16,00,25.10
2008,09,15,16,01,25.10
2008,09,15,16,02,25.00
2008,09,15,16,03,25.00
2008,09,15,16,04,24.90
2008,09,15,16,05,24.80
2008,09,15,16,06,24.80
2008,09,15,16,07,24.80
2008,09,15,16,08,24.80
2008,09,15,16,09,24.90
2008,09,15,16,10,24.90
2008,09,15,16,11,25.00
2008,09,15,16,12,25.00
2008,09,15,16,13,25.10
2008,09,15,16,14,25.10
2008,09,15,16,15,25.10
2008,09,15,16,16,25.00
2008,09,15,16,17,24.90
2008,09,15,16,18,24.80
2008,09,15,16,19,24.60
2008,09,15,16,20,24.50
2008,09,15,16,21,24.50
2008,09,15,16,22,24.50
2008,09,15,16,23,24.60
2008,09,15,16,24,24.70
2008,09,15,16,25,24.80
2008,09,15,16,26,24.70
2008,09,15,16,27,24.70
2008,09,15,16,28,24.80
2008,09,15,16,29,24.80
2008,09,15,16,30,24.90
2008,09,15,16,31,25.00
2008,09,15,16,32,25.10
2008,09,15,16,33,25.10
2008,09,15,16,34,25.00
2008,09,15,16,35,24.90
2008,09,15,16,36,24.80
2008,09,15,16,37,24.70
2008,09,15,16,38,24.60
2008,09,15,16,39,24.50
2008,09,15,16,40,24.40
2008,09,15,16,41,24.40
2008,09,15,16,42,24.30
2008,09,15,16,43,24.40
2008,09,15,16,44,24.40
2008,09,15,16,45,24.40
2008,09,15,16,46,24.40
2008,09,15,16,47,24.40
2008,09,15,16,48,24.40
2008,09,15,16,49,24.40
2008,09,15,16,50,24.50
2008,09,15,16,51,24.60
2008,09,15,16,52,24.60
2008,09,15,16,53,24.70
2008,09,15,16,54,24.80
2008,09,15,16,55,24.90
2008,09,15,16,56,24.90
2008,09,15,16,57,25.00
2008,09,15,16,58,25.00
2008,09,15,16,59,25.00
2008,09,15,17,00,25.00
2008,09,15,17,01,25.00
2008,09,15,17,02,25.10
2008,09,15,17,03,25.20
2008,09,15,17,04,25.20
2008,09,15,17,05,25.20
2008,09,15,17,06,25.20
2008,09,15,17,07,25.10
2008,09,15,17,08,25.10
2008,09,15,17,09,25.20
2008,09,15,17,10,25.20
2008,09,15,17,11,25.20
2008,09,15,17,12,25.20
2008,09,15,17,13,25.20
2008,09,15,17,14,25.30
2008,09,15,17,15,25.30
2008,09,15,17,16,25.30
2008,09,15,17,17,25.40
2008,09,15,17,18,25.40
2008,09,15,17,19,25.40
2008,09,15,17,20,25.40
2008,09,15,17,21,25.40
2008,09,15,17,22,25.50
2008,09,15,17,23,25.50
2008,09,15,17,24,25.60
2008,09,15,17,25,25.60
2008,09,15,17,26,25.50
2008,09,15,17,27,25.50
2008,09,15,17,28,25.40
2008,09,15,17,29,25.40
2008,09,15,17,30,25.30